SP3WRO-13 Weather Reports


time (UTC)temp
C
wind
direction
speed
KPH
gust
KPH
rain 1hr
cm
rain 24hr
cm
rain mn
cm
humidity
%
barometer
mb
20260905223213 12 5 1.6 9.7 0.00 0.25 0.00 91 1014.1
20260905221713 12 270 3.2 9.7 0.00 0.25 0.00 91 1014.1
20260905220213 12 216 1.6 8.0 0.00 0.25 0.00 91 1014.0
20260905214713 12 216 1.6 8.0 0.00 0.25 0.00 92 1013.9
20260905213213 12 195 0.0 4.8 0.00 0.25 0.00 93 1013.8
20260905211713 12 306 1.6 6.4 0.00 0.25 0.00 92 1013.6
20260905210213 12 252 0.0 9.7 0.00 0.25 0.00 92 1013.4
20260905204713 12 78 1.6 4.8 0.00 0.25 0.00 92 1013.4
20260905203213 12 204 1.6 6.4 0.00 0.25 0.00 92 1013.5
20260905201713 12 40 1.6 8.0 0.00 0.25 0.00 92 1013.3
20260905200212 12 246 1.6 9.7 0.00 0.25 0.00 91 1013.1
20260905194712 12 91 1.6 6.4 0.00 0.25 0.00 91 1012.8
20260905193212 12 276 1.6 8.0 0.00 0.25 0.00 92 1012.7
20260905191712 12 258 1.6 6.4 0.00 0.28 0.00 92 1012.6
20260905190212 12 111 1.6 8.0 0.00 0.28 0.00 93 1012.5
20260905184711 12 186 1.6 6.4 0.00 0.33 0.00 93 1012.5
20260905183211 13 0 1.6 11.3 0.00 0.33 0.00 92 1012.4
20260905181711 13 228 3.2 9.7 0.00 0.33 0.00 92 1012.3
20260905180211 13 246 1.6 6.4 0.00 0.33 0.00 92 1012.0
20260905174710 13 318 1.6 6.4 0.00 0.33 0.00 90 1011.8
20260905173210 13 234 3.2 9.7 0.00 0.33 0.00 90 1011.8
20260905171710 13 190 3.2 9.7 0.00 0.33 0.00 90 1011.4
20260905170209 13 185 4.8 9.7 0.00 0.36 0.00 89 1011.4
20260905164709 14 191 4.8 11.3 0.00 0.38 0.00 89 1011.3
20260905163209 14 157 4.8 9.7 0.03 0.38 0.00 87 1011.1
20260905161709 15 114 4.8 16.1 0.03 0.58 0.00 86 1010.9
20260905160208 15 185 3.2 11.3 0.03 0.71 0.00 85 1010.7
20260905154708 15 202 6.4 16.1 0.03 1.09 0.00 85 1010.7
20260905153208 16 216 3.2 9.7 0.00 1.07 0.00 81 1010.6
20260905151708 16 246 3.2 9.7 0.00 1.07 0.00 81 1010.4
20260905150208 16 222 4.8 11.3 0.00 1.07 0.00 80 1010.3
20260905144708 16 245 4.8 12.9 0.00 1.07 0.00 78 1010.3
20260905143208 16 217 4.8 16.1 0.00 1.07 0.00 83 1010.4
20260905141708 16 221 4.8 11.3 0.05 1.07 0.00 83 1010.5
20260905140208 16 254 3.2 9.7 0.05 1.07 0.00 86 1010.5
20260905134708 15 32 3.2 8.0 0.05 1.07 0.00 90 1010.5
20260905133207 14 292 6.4 17.7 0.13 1.07 0.00 88 1010.6
20260905131707 15 280 1.6 6.4 0.15 1.02 0.00 87 1010.5
20260905130207 15 222 1.6 6.4 0.15 1.02 0.00 90 1010.3
20260905124707 13 180 4.8 20.9 0.15 1.02 0.00 89 1010.2
20260905123207 14 276 8.0 20.9 0.13 0.99 0.00 90 1010.7
20260905121707 17 258 4.8 17.7 0.00 0.86 0.00 78 1010.1
20260905120207 18 264 6.4 16.1 0.00 0.86 0.00 75 1010.0
20260905114707 18 280 6.4 14.5 0.00 0.86 0.00 76 1009.9
20260905113207 18 194 6.4 17.7 0.03 0.86 0.00 78 1010.1
20260905111707 17 192 4.8 16.1 0.03 0.86 0.00 81 1010.3
20260905110203 16 174 4.8 17.7 0.03 0.86 0.00 85 1010.4
20260905104703 15 255 4.8 19.3 0.03 0.86 0.00 85 1010.5
20260905103203 16 285 6.4 17.7 0.00 0.84 0.00 82 1010.5
20260905101703 17 167 6.4 17.7 0.00 0.84 0.00 74 1010.2
20260905100203 18 90 4.8 16.1 0.00 0.84 0.00 73 1009.8
20260905094703 18 324 6.4 16.1 0.00 0.84 0.00 72 1009.9
20260905093203 18 312 4.8 16.1 0.00 0.84 0.00 69 1009.8
20260905091703 17 270 8.0 19.3 0.00 0.84 0.00 70 1009.7
20260905090203 17 253 6.4 17.7 0.00 0.84 0.00 73 1009.7
20260905084703 17 293 6.4 17.7 0.00 0.84 0.00 72 1009.5
20260905083203 17 294 6.4 16.1 0.00 0.84 0.00 73 1009.6
20260905081703 17 69 8.0 19.3 0.00 0.84 0.00 73 1009.4
20260905080202 16 301 6.4 20.9 0.00 0.84 0.00 75 1009.4
20260905074702 16 319 4.8 16.1 0.00 0.84 0.00 77 1009.3
20260905073202 16 330 4.8 16.1 0.00 0.84 0.00 78 1009.1
20260905071702 16 342 6.4 17.7 0.00 0.84 0.00 77 1009.1
20260905070202 16 270 6.4 19.3 0.00 0.84 0.00 80 1008.8
20260905064702 15 276 4.8 11.3 0.00 0.84 0.00 82 1008.6
20260905063202 16 186 4.8 11.3 0.00 0.84 0.00 79 1008.4
20260905061702 16 202 4.8 11.3 0.00 0.84 0.00 78 1008.3
20260905060202 15 310 4.8 17.7 0.00 0.84 0.00 77 1008.3
20260905054701 15 294 4.8 16.1 0.00 0.84 0.00 78 1008.1
20260905053201 15 234 4.8 14.5 0.00 0.84 0.00 78 1008.0
20260905051701 15 271 4.8 24.1 0.00 0.84 0.00 81 1007.8
20260905050201 15 276 3.2 9.7 0.00 0.84 0.00 85 1007.6
20260905044701 15 276 3.2 8.0 0.00 0.84 0.00 86 1007.3
20260905043201 15 246 4.8 14.5 0.00 0.84 0.00 86 1007.2
20260905041701 15 175 3.2 14.5 0.00 0.84 0.00 86 1007.1
20260905040201 15 222 3.2 8.0 0.00 0.84 0.00 86 1006.9
20260905034701 15 196 3.2 9.7 0.00 0.84 0.00 85 1006.7
20260905033201 15 259 3.2 9.7 0.00 0.84 0.00 86 1006.6
20260905031701 15 133 3.2 8.0 0.00 0.84 0.00 87 1006.6
20260905030201 15 126 1.6 9.7 0.00 0.84 0.00 86 1006.4
20260905024701 15 156 3.2 12.9 0.00 0.84 0.00 87 1006.2
20260905023201 15 222 3.2 16.1 0.00 0.84 0.00 86 1006.3
20260905021701 15 228 1.6 8.0 0.00 0.84 0.00 86 1006.2
20260905020201 15 210 1.6 9.7 0.00 0.84 0.00 85 1006.1
20260905014700 15 214 3.2 9.7 0.00 0.84 0.00 82 1005.9
20260905013200 15 306 3.2 14.5 0.00 0.84 0.00 83 1005.8
20260905011700 15 281 1.6 11.3 0.00 0.84 0.00 86 1005.6
20260905010200 15 298 3.2 16.1 0.00 0.84 0.00 78 1005.4
20260905004700 15 298 6.4 20.9 0.00 0.84 0.00 77 1005.4
20260905003200 16 336 6.4 17.7 0.00 0.84 0.00 82 1005.1
20260905001700 16 300 6.4 16.1 0.00 0.84 0.00 84 1005.0
20260905000200 16 300 6.4 16.1 0.00 0.84 0.00 85 1004.8
20260904234700 16 282 6.4 25.7 0.00 0.84 0.00 86 1004.8